FREGAT R/B, 41106

Orbit data source: Space-Track

FREGAT R/B, 41106 is space debris in GEO originally from a launch on Fri, 11 Dec 2015 UTC launched from the Tyuratam Missile And Space Complex (TTMTR). Debris objects in space refer to the collection of defunct objects orbiting the Earth. Examples of debris include non-operational satellites, rocket bodies, and fragments generated from explosions, collisions, or faulty payload assembly.

Not visible in the next 10 days
Identifier
41106, 2015-074B
Orbit
GEO
Country
Flag of CISCIS
Related business
Manufacturer
Lavochkin
Mission
Spacecraft
Bus & Motor
FREGAT, Unknown motor
Mass
1,000 kg wet, 1,000 kg dry
Launch date (UTC)
2015-12-11 (10 years ago)
Launch vehicle
Unknown
Launch site
Tyuratam Missile And Space Complex (TTMTR)
Object type
Payload
Rocket body
Debris
Shape & HBR
Cyl, 1.6 m
Radar Cross Section
8.683 m²

Expand to show TLE details & history
Last TLE update: 7 hours ago

TLE from 7 hours ago
0 FREGAT R/B
1 41106U 15074B   25318.74005094 -.00000270  00000-0  00000+0 0  9996
2 41106   7.6206  64.3212 0196221 353.0715   6.5751  1.02895028 37300
Epoch: 2025-11-14T17:45Z
TLE epoch observation values (Epoch: 2025-11-14T17:45:40.401Z)
Latitude
-0°
Longitude
103.72018°
Altitude
34,255.483 km
Speed
3.163 km/s
True Right ascension
04h 16m 52s
True Declination
0° 00' 00"
Sunlit
Object was in daylight at epoch
Visualization orbit readout
Latitude
Unknown
Longitude
Unknown
Altitude
Unknown
Speed
Unknown
Apparent Right ascension
Unknown
Apparent Declination
Unknown
Sunlit
N/A
Visualization observer readout
Local Sidereal Time
21:40:11
Azimuth
Unknown
Elevation
Unknown
Doppler factor
Unknown
Orbital elements
Apogee altitude
35,881.193 km
Perigee altitude
34,254.675 km
Semi-major axis
41,446.071 km
Eccentricity
0.01962
Inclination
7.6206°
RAAN
64.3212°
Arg. of periapsis
353.0715°
True anomaly
6.83899°
Mean anomaly
6.5751°
Eccentric anomaly
6.70639°
Mean motion
0.25723 °/min
Orbital period
1,399.54 mins
BSTAR
0
Loading maneuver chart data...
Computing Atmospheric mass density...
Loading historical data...
Loading historical data...
Loading historical data...
Loading historical data...
Loading historical data...
Loading historical data...
Loading historical data...

Documentation

Showing up to 5 results
|